Date,TemperatureHighF,TemperatureAvgF,TemperatureLowF,DewpointHighF,DewpointAvgF,DewpointLowF,HumidityHigh,HumidityAvg,HumidityLow,PressureMaxIn,PressureMinIn,WindSpeedMaxMPH,WindSpeedAvgMPH,GustSpeedMaxMPH,PrecipitationSumIn
2014-1-1,0,-7,-18,-11,-17,-28,59,59,59,30.46,30.37,7,4,7,0.00
2014-1-2,6,-4,-10,-6,-15,-20,59,59,59,30.40,30.28,7,3,7,0.00
2014-1-3,20,3,-12,8,-9,-22,59,58,44,30.28,29.39,16,7,16,0.00
2014-1-4,22,12,-4,13,-5,-23,68,47,38,30.13,29.36,11,5,11,0.00
2014-1-5,-4,-12,-18,-23,-30,-36,38,38,38,30.25,30.10,10,4,10,0.00
2014-1-6,-16,-20,-25,-34,-38,-42,38,38,38,30.10,29.96,12,6,12,0.00
2014-1-7,-4,-14,-24,-23,-32,-42,38,38,38,30.13,29.96,13,5,13,0.00
2014-1-8,4,-7,-15,-16,-26,-33,38,38,38,30.40,30.13,13,4,13,0.00
2014-1-9,15,4,-10,0,-15,-29,52,40,35,30.37,29.87,13,6,13,0.00
2014-1-10,26,22,14,19,12,0,74,64,52,29.87,29.45,13,5,13,0.00
2014-1-11,30,27,24,20,16,11,76,64,51,29.57,29.42,12,4,12,0.00
2014-1-12,36,30,24,17,15,12,67,53,42,29.57,29.31,12,6,12,0.00
2014-1-13,33,27,22,17,9,2,56,45,37,29.63,29.39,12,4,12,0.00
2014-1-14,22,14,8,3,-1,-8,55,49,43,30.01,29.60,9,4,10,0.00
2014-1-15,15,8,2,4,-9,-14,61,46,46,30.01,29.31,14,6,14,0.00
2014-1-16,28,16,9,20,4,-7,72,58,47,29.72,29.25,12,5,12,0.00
2014-1-17,16,10,2,2,-4,-14,60,53,46,29.96,29.72,10,3,10,0.00
2014-1-18,22,11,-3,4,-7,-18,50,44,36,29.84,29.51,15,3,15,0.00
2014-1-19,28,21,13,13,7,1,58,55,48,29.69,29.42,14,4,14,0.00
2014-1-20,13,3,-6,1,-9,-18,57,57,57,30.34,29.69,10,4,10,0.00
2014-1-21,4,-6,-18,-8,-17,-28,57,57,57,30.34,29.93,9,4,9,0.00
2014-1-22,1,-1,-2,-10,-12,-14,57,57,57,30.34,29.84,13,6,13,0.04
2014-1-23,1,-6,-11,-11,-18,-22,57,57,57,30.55,30.01,16,6,16,0.00
2014-1-24,26,15,-4,15,2,-15,66,57,35,30.01,29.31,19,7,19,0.00
2014-1-25,15,2,-1,-9,-19,-22,35,35,34,29.72,29.42,13,5,13,0.00
2014-1-26,6,1,-5,-16,-21,-25,35,35,35,29.84,29.28,14,4,14,0.00
2014-1-27,-5,-12,-19,-25,-32,-38,35,35,35,30.19,29.84,14,6,14,0.00
2014-1-28,-2,-10,-21,-23,-30,-40,35,35,35,30.19,29.87,17,7,17,0.00
2014-1-29,24,9,-9,0,-14,-29,41,34,30,29.87,29.48,16,7,16,0.00
2014-1-30,23,11,-4,2,-9,-25,44,38,35,29.90,29.48,11,4,11,0.00
2014-1-31,9,-3,-15,-13,-24,-35,35,35,35,30.01,29.90,12,5,12,0.00
2014-2-1,15,6,-4,-4,-15,-25,44,37,35,30.10,29.87,10,4,10,0.00
2014-2-2,13,2,-10,-8,-17,-28,39,39,39,30.19,30.10,12,4,12,0.00
2014-2-3,20,7,-4,-4,-14,-22,39,37,35,30.28,30.13,8,4,9,0.00
2014-2-4,17,7,1,-5,-15,-20,42,35,34,30.40,30.28,9,4,9,0.00
2014-2-5,5,3,-3,-17,-19,-24,34,34,34,30.40,30.31,11,4,11,0.00
2014-2-6,8,-2,-11,-14,-24,-31,34,34,34,30.31,22.75,14,6,14,0.00
2014-2-7,14,4,-4,-10,-20,-25,34,31,26,30.07,29.96,21,7,21,0.00
2014-2-8,20,7,-7,-4,-18,-32,37,31,27,30.10,30.01,9,3,9,0.00
2014-2-9,6,2,-4,-15,-19,-25,35,35,35,30.28,30.07,12,4,12,0.00
2014-2-10,5,-4,-13,-16,-24,-33,35,35,35,30.37,30.28,9,3,9,0.00
2014-2-11,19,5,-8,-9,-19,-29,35,31,25,30.37,29.96,14,6,14,0.00
2014-2-12,24,15,10,0,-10,-17,50,32,27,30.04,29.84,13,4,13,0.00
2014-2-13,23,16,8,7,-2,-14,60,46,34,29.84,29.39,9,4,9,0.00
2014-2-14,15,7,-2,0,-10,-23,53,46,35,29.96,29.66,9,3,9,0.00
2014-2-15,19,8,-4,0,-11,-25,54,41,35,30.01,29.81,8,3,8,0.00
2014-2-16,18,7,3,0,-9,-16,54,46,37,30.25,30.01,8,3,8,0.00
2014-2-17,24,18,8,11,4,-12,64,53,39,30.10,29.69,8,4,8,0.00
2014-2-18,45,31,19,15,12,8,69,47,28,29.72,29.51,10,4,10,0.16
2014-2-19,46,33,24,13,8,5,46,36,23,29.75,29.63,15,6,15,0.00
2014-2-20,39,34,29,24,16,9,78,51,31,29.66,29.04,12,5,12,0.00
2014-2-21,30,16,7,23,3,-9,78,55,44,29.54,28.98,22,8,22,0.00
2014-2-22,19,10,5,-4,-10,-17,46,40,34,29.93,29.54,18,7,18,0.00
2014-2-23,18,9,2,-6,-13,-20,35,35,33,30.07,29.93,15,7,15,0.00
2014-2-24,15,7,0,-8,-15,-21,35,35,34,30.16,30.07,14,5,14,0.00
2014-2-25,7,-1,-10,-15,-23,-31,34,34,34,30.16,30.07,14,5,14,0.00
2014-2-26,11,-1,-12,-12,-23,-32,34,34,34,30.13,29.45,18,7,18,0.00
2014-2-27,0,-8,-16,-21,-29,-36,34,34,34,30.07,29.75,14,4,14,0.00
2014-2-28,14,0,-16,-10,-25,-36,34,30,24,30.07,29.84,12,4,12,0.00
2014-3-1,2,-4,-13,-26,-32,-39,24,24,24,30.40,30.07,12,5,12,0.00
2014-3-2,6,-7,-22,-23,-34,-47,24,24,24,30.43,30.34,13,4,13,0.00
2014-3-3,15,1,-12,-15,-27,-38,24,24,24,30.43,30.22,12,4,12,0.00
2014-3-4,20,8,-1,-3,-17,-29,41,31,24,30.34,30.16,7,2,7,0.00
2014-3-5,16,6,-3,-7,-16,-23,35,35,34,30.52,30.34,8,3,8,0.00
2014-3-6,33,20,7,8,-2,-15,44,37,34,30.34,29.81,14,7,15,0.00
2014-3-7,31,27,20,18,11,3,63,51,42,30.19,29.75,13,5,13,0.00
2014-3-8,29,20,12,3,-2,-6,50,38,29,30.28,30.07,9,4,9,0.00
2014-3-9,45,32,17,17,9,-6,47,38,30,30.07,29.57,19,6,19,0.00
2014-3-10,57,43,31,25,18,10,66,38,20,29.66,29.48,14,5,14,0.00
2014-3-11,44,36,21,16,11,4,61,36,29,30.01,29.63,13,4,13,0.00
2014-3-12,20,11,6,9,-5,-15,63,48,37,30.16,29.98,9,4,12,0.00
2014-3-13,46,31,9,22,8,-12,45,38,30,29.98,29.42,15,7,16,0.00
2014-3-14,43,34,24,24,15,1,56,47,40,29.90,29.39,13,6,13,0.00
2014-3-15,24,16,7,4,-5,-14,50,38,32,30.46,29.90,10,3,10,0.00
2014-3-16,28,15,-2,-4,-11,-22,37,30,21,30.49,29.98,10,3,10,0.00
2014-3-17,26,22,17,7,0,-12,49,39,25,30.01,29.66,12,5,12,0.00
2014-3-18,27,25,23,20,15,7,76,66,47,29.87,29.75,8,3,11,0.00
2014-3-19,34,29,25,19,14,9,76,55,40,29.90,29.78,12,4,12,0.00
2014-3-20,43,32,26,12,9,6,49,38,28,29.98,29.90,9,3,9,0.04
2014-3-21,34,31,28,25,17,6,76,58,36,30.04,29.72,7,1,7,0.00
2014-3-22,27,13,6,16,-4,-13,63,46,37,30.40,29.98,10,2,10,0.00
2014-3-23,20,10,0,-6,-12,-18,41,36,27,30.43,30.28,12,4,12,0.00
2014-3-24,29,17,6,-1,-8,-17,38,31,25,30.28,29.98,15,5,15,0.00
2014-3-25,20,12,4,-4,-11,-18,43,33,30,30.16,30.01,15,5,15,0.00
2014-3-26,32,20,2,4,-5,-21,37,32,30,30.10,29.66,12,4,12,0.00
2014-3-27,33,30,26,28,18,4,83,65,33,29.72,29.57,7,2,7,0.00
2014-3-28,36,28,20,16,7,1,66,42,25,30.22,29.72,0,0,0,0.08
2014-3-29,46,31,22,9,2,-3,39,29,20,30.28,30.07,8,2,8,0.00
2014-3-30,55,42,30,21,16,6,43,36,26,30.07,29.87,14,5,14,0.00
2014-3-31,39,37,33,29,20,16,81,52,40,29.93,29.39,10,4,10,0.08
2014-4-1,37,26,18,29,10,0,76,52,40,30.10,29.39,15,5,15,0.00
2014-4-2,43,28,18,10,5,0,47,37,26,30.19,30.07,9,4,9,0.00
2014-4-3,32,28,24,19,9,2,77,48,32,30.19,29.84,12,5,12,0.00
2014-4-4,35,29,25,23,18,9,81,64,42,29.96,29.72,14,5,14,0.00
2014-4-5,50,37,24,19,13,8,52,38,21,30.04,29.93,13,5,13,0.08
2014-4-6,59,42,32,23,18,14,57,39,24,29.96,29.81,11,3,11,0.00
2014-4-7,50,38,28,33,23,15,69,55,33,29.87,29.75,9,2,9,0.00
2014-4-8,50,41,34,26,15,8,59,35,25,29.93,29.75,11,5,11,0.00
2014-4-9,58,46,32,23,15,6,35,29,22,29.93,29.39,19,6,19,0.00
2014-4-10,54,47,41,28,15,8,43,28,18,29.90,29.42,18,6,18,0.00
2014-4-11,56,46,36,21,14,9,34,27,20,30.01,29.87,12,3,12,0.00
2014-4-12,40,36,34,30,24,10,84,63,30,30.04,29.81,11,4,11,0.04
2014-4-13,43,35,31,32,23,9,86,63,35,29.93,29.81,14,4,14,0.00
2014-4-14,31,26,22,10,0,-6,42,32,23,30.04,29.90,14,5,14,0.00
2014-4-15,32,24,17,2,-3,-10,48,31,20,30.13,30.04,10,3,10,0.00
2014-4-16,28,25,21,22,11,-9,80,58,25,30.19,30.10,14,4,14,0.00
2014-4-17,38,31,28,27,20,14,83,66,42,30.31,30.07,11,4,11,0.08
2014-4-18,44,32,23,18,13,10,63,46,29,30.40,30.31,9,3,9,0.08
2014-4-19,50,41,31,31,21,13,55,44,29,30.34,30.01,13,4,13,0.12
2014-4-20,68,53,42,35,27,16,64,39,15,30.04,29.98,9,2,9,0.08
2014-4-21,64,49,38,32,20,14,49,33,21,30.04,29.84,14,4,14,0.08
2014-4-22,51,41,32,17,14,8,41,33,24,30.13,30.01,9,4,9,0.08
2014-4-23,52,40,27,20,14,10,52,36,26,30.16,30.01,9,2,9,0.08
2014-4-24,40,35,33,32,29,20,86,80,45,30.04,29.66,8,2,8,0.63
2014-4-25,44,36,32,32,25,18,87,66,39,29.98,29.66,13,4,13,0.47
2014-4-26,40,34,30,25,18,9,74,53,40,30.16,29.98,11,4,11,0.00
2014-4-27,35,33,30,24,16,7,68,51,34,30.13,29.93,13,5,13,0.16
2014-4-28,42,38,34,24,16,11,65,42,30,29.96,29.87,17,6,17,0.04
2014-4-29,41,34,32,31,22,11,87,63,30,29.90,29.75,18,7,18,0.08
2014-4-30,40,36,33,37,33,30,89,88,87,29.75,29.72,8,3,8,0.47
2014-5-1,42,39,36,37,33,27,89,80,61,29.78,29.69,9,4,9,0.16
2014-5-2,56,45,39,32,26,20,64,48,26,29.75,29.63,12,3,12,0.00
2014-5-3,54,45,39,31,20,12,64,39,23,29.93,29.63,15,5,15,0.08
2014-5-4,53,42,32,20,16,11,55,36,27,30.10,29.93,9,4,9,0.08
2014-5-5,48,40,36,33,24,13,78,55,34,30.10,30.01,9,3,9,0.08
2014-5-6,53,43,31,34,23,18,76,47,31,30.07,29.96,12,3,12,0.08
2014-5-7,58,48,38,36,24,18,64,39,26,29.98,29.78,12,4,12,0.43
2014-5-8,55,46,40,51,40,31,89,81,58,29.87,29.60,10,3,10,1.14
2014-5-9,59,47,40,56,37,26,90,68,47,29.75,29.45,17,5,17,0.12
2014-5-10,71,55,42,28,19,8,56,27,14,29.90,29.75,9,4,9,0.08
2014-5-11,65,53,46,38,26,12,65,36,21,29.96,29.90,11,4,11,0.08
2014-5-12,48,40,38,37,35,22,92,83,37,29.93,29.66,12,5,12,0.31
2014-5-13,56,45,35,41,29,19,93,60,28,30.10,29.66,16,5,16,0.08
2014-5-14,56,45,36,24,19,14,54,36,22,30.25,30.10,16,4,16,0.00
2014-5-15,44,39,36,19,16,13,47,38,30,30.22,30.07,10,3,10,0.00
2014-5-16,52,43,35,18,13,8,43,30,19,30.07,30.01,11,2,11,0.00
2014-5-17,65,54,37,19,14,9,31,21,15,30.01,29.93,15,4,15,0.00
2014-5-18,73,62,49,27,19,11,29,20,14,30.04,29.96,15,4,15,0.00
2014-5-19,64,55,49,43,31,16,80,45,19,30.07,29.81,12,4,12,0.51
2014-5-20,74,58,49,53,43,34,86,62,24,29.87,29.81,10,3,10,0.35
2014-5-21,66,56,47,36,32,29,61,40,26,30.10,29.81,11,4,11,0.00
2014-5-22,67,54,47,34,30,25,60,41,23,30.22,30.10,9,3,10,0.00
2014-5-23,72,57,40,35,28,23,69,35,21,30.28,30.16,8,2,8,0.00
2014-5-24,86,71,50,34,30,25,37,22,13,30.19,30.04,13,4,13,0.00
2014-5-25,86,74,61,37,31,26,29,21,13,30.07,29.93,12,5,12,0.00
2014-5-26,88,72,63,48,44,33,59,38,19,29.96,29.84,12,2,12,0.00
2014-5-27,63,55,42,44,30,21,50,38,32,30.10,29.96,10,3,11,0.00
2014-5-28,68,53,37,32,28,22,65,41,25,30.19,30.07,8,3,9,0.00
2014-5-29,82,62,41,42,30,18,75,38,11,30.19,30.10,6,1,6,0.00
2014-5-30,82,65,45,41,35,27,60,35,21,30.19,30.10,7,1,7,0.00
2014-5-31,81,64,53,56,43,34,81,49,28,30.13,29.96,10,1,10,0.31
2014-6-1,79,67,58,64,56,45,88,71,32,29.98,29.75,11,1,11,0.16
2014-6-2,76,63,56,63,50,39,88,67,31,29.78,29.54,13,2,13,0.43
2014-6-3,74,61,52,46,37,31,68,44,23,29.90,29.66,13,3,13,0.00
2014-6-4,74,60,47,46,33,21,74,40,21,29.98,29.90,8,2,8,0.00
2014-6-5,74,58,40,50,37,22,65,46,31,29.98,29.87,8,0,8,0.00
2014-6-6,82,68,58,51,43,33,73,44,19,30.01,29.90,11,2,11,0.00
2014-6-7,61,53,46,49,43,32,84,72,36,30.10,29.98,7,1,7,1.18
2014-6-8,66,54,43,45,31,23,85,46,23,30.16,30.07,7,1,7,0.00
2014-6-9,69,54,40,43,35,28,66,50,26,30.10,30.01,6,0,6,0.00
2014-6-10,73,58,47,46,36,31,74,47,24,30.04,29.90,6,1,6,0.00
2014-6-11,73,59,46,45,35,31,69,43,22,29.93,29.72,7,0,7,0.04
2014-6-12,60,54,46,54,43,34,83,67,44,29.90,29.60,15,3,15,0.31
2014-6-13,70,55,42,38,32,26,73,46,22,30.01,29.90,10,1,10,0.12
2014-6-14,57,52,50,43,37,31,72,55,46,30.04,29.87,6,1,6,0.24
2014-6-15,72,60,52,56,45,38,86,62,33,29.93,29.57,14,2,14,0.43
2014-6-16,80,69,59,50,43,37,55,40,23,29.90,29.75,13,2,13,0.00
2014-6-17,79,68,58,49,43,38,66,41,28,29.98,29.75,6,1,6,0.00
2014-6-18,64,58,52,40,37,32,59,45,37,30.13,29.96,9,4,9,0.43
2014-6-19,69,63,50,51,45,34,71,52,42,30.19,30.01,8,1,8,0.43
2014-6-20,64,57,48,60,50,40,85,76,48,30.04,29.96,4,0,5,0.08
2014-6-21,70,55,47,55,44,39,88,70,38,29.98,29.90,7,1,7,0.43
2014-6-22,69,58,50,60,46,43,87,67,42,29.98,29.87,5,0,5,0.43
2014-6-23,76,64,53,60,49,45,84,61,35,29.90,29.84,5,0,5,0.43
2014-6-24,61,50,42,54,44,36,87,78,54,30.10,29.87,7,2,7,0.00
2014-6-25,59,49,43,48,36,27,90,62,36,30.16,30.07,7,1,7,0.00
2014-6-26,66,54,41,48,36,29,75,52,34,30.13,30.01,6,0,6,0.00
2014-6-27,79,65,50,61,51,35,82,62,34,30.01,29.87,7,0,7,0.47
2014-6-28,85,74,66,69,56,45,87,59,30,29.90,29.72,12,2,12,0.51
2014-6-29,81,71,64,63,51,38,86,53,23,29.75,29.63,15,3,15,0.35
2014-6-30,83,71,64,54,41,34,62,35,19,29.66,29.42,18,5,18,0.00
2014-7-1,73,65,56,50,43,36,64,46,34,29.84,29.42,10,3,10,0.35
2014-7-2,70,59,51,39,32,27,63,38,22,30.10,29.78,9,2,9,0.35
2014-7-3,73,62,53,38,32,28,49,34,21,30.22,30.07,7,0,7,0.00
2014-7-4,78,64,53,47,36,28,58,36,21,30.31,30.10,9,2,9,0.35
2014-7-5,82,71,64,54,44,37,62,39,25,30.13,29.81,12,4,12,0.35
2014-7-6,85,72,67,62,50,38,80,49,29,29.84,29.60,11,3,11,0.04
2014-7-7,81,70,62,52,44,38,71,40,24,29.72,29.60,9,1,9,0.43
2014-7-8,62,57,50,53,47,40,82,69,50,29.90,29.60,6,0,6,0.20
2014-7-9,68,58,48,48,41,34,83,56,32,30.07,29.90,6,0,7,0.35
2014-7-10,79,66,52,49,42,36,66,44,23,30.13,30.01,7,1,7,0.00
2014-7-11,72,67,62,57,54,48,80,62,47,30.04,29.96,9,3,9,0.35
2014-7-12,71,68,64,61,50,41,80,54,34,30.04,29.87,7,1,7,0.35
2014-7-13,70,62,54,50,36,31,62,39,25,29.96,29.87,9,2,9,0.35
2014-7-14,61,56,52,45,37,32,77,50,34,30.01,29.84,7,2,7,0.16
2014-7-15,68,57,51,51,41,30,85,59,25,30.07,29.98,8,2,8,0.35
2014-7-16,73,62,45,45,35,30,75,39,22,30.10,30.01,7,0,7,0.00
2014-7-17,76,67,60,42,37,33,50,34,23,30.07,30.01,8,1,8,0.00
2014-7-18,77,69,60,46,41,36,51,37,24,30.10,29.98,9,2,9,0.00
2014-7-19,76,68,62,50,45,41,55,44,35,29.98,29.90,10,2,10,0.00
2014-7-20,82,73,64,52,50,48,63,45,32,29.93,29.84,10,3,10,0.00
2014-7-21,88,79,71,58,53,49,52,42,30,29.96,29.84,7,2,7,0.00
2014-7-22,78,69,56,64,50,40,83,53,32,30.19,29.72,14,2,14,0.43
2014-7-23,71,62,54,48,42,37,72,49,32,30.28,30.19,6,0,6,0.00
2014-7-24,75,64,51,51,43,37,77,49,26,30.22,29.96,0,0,0,0.00
2014-7-25,71,67,62,56,50,44,66,55,45,29.96,29.81,6,1,7,0.00
2014-7-26,84,73,67,60,46,36,72,42,20,29.84,29.75,8,1,8,0.00
2014-7-27,68,60,51,56,46,38,82,62,38,30.13,29.72,9,1,9,0.71
2014-7-28,72,63,52,47,41,36,79,47,29,30.19,30.10,8,1,8,0.00
2014-7-29,74,62,54,52,44,36,81,55,28,30.13,30.01,9,1,9,0.28
2014-7-30,75,63,49,58,49,40,86,64,33,30.10,29.98,7,0,7,0.04
2014-7-31,77,65,54,54,44,35,78,50,23,30.01,29.98,6,0,6,0.00
2014-8-1,74,65,54,48,42,36,65,44,31,30.13,30.01,0,0,0,0.00
2014-8-2,82,67,56,56,49,44,79,54,29,30.16,30.07,6,0,6,0.00
2014-8-3,73,65,58,53,48,45,70,54,41,30.13,30.07,6,0,6,0.00
2014-8-4,71,62,56,58,48,38,82,61,33,30.16,30.10,5,1,5,0.00
2014-8-5,76,62,52,55,45,40,83,57,31,30.19,30.10,8,0,8,0.00
2014-8-6,72,64,55,52,44,39,73,50,33,30.16,30.10,6,0,6,0.00
2014-8-7,77,65,54,56,49,43,81,58,32,30.19,30.07,6,0,6,0.00
2014-8-8,79,67,56,54,47,40,77,51,26,30.16,30.10,5,0,5,0.00
2014-8-9,79,67,56,51,45,39,76,48,24,30.19,30.13,4,0,4,0.00
2014-8-10,78,67,59,50,48,42,66,51,29,30.13,30.04,4,0,4,0.00
2014-8-11,67,62,58,60,55,48,84,76,54,30.10,29.98,6,1,6,0.28
2014-8-12,75,65,54,56,43,34,85,51,23,30.07,29.96,7,1,7,0.04
2014-8-13,73,62,50,54,43,32,82,54,24,30.19,29.98,6,1,6,0.04
2014-8-14,71,58,44,47,35,29,78,47,23,30.22,30.04,0,0,0,0.00
2014-8-15,83,68,54,49,44,38,60,43,28,30.07,29.84,6,0,6,0.00
2014-8-16,72,66,56,57,50,42,68,57,38,30.07,29.84,7,1,7,0.00
2014-8-17,60,57,55,52,44,39,83,63,46,30.13,29.93,5,0,5,0.04
2014-8-18,71,63,57,67,58,52,87,83,66,29.96,29.69,5,0,5,0.35
2014-8-19,67,61,58,62,55,49,87,81,54,29.87,29.66,4,0,4,0.04
2014-8-20,68,62,58,60,52,48,86,70,50,29.98,29.87,3,0,3,0.04
2014-8-21,67,64,59,61,54,51,88,72,57,29.98,29.93,6,1,6,0.04
2014-8-22,68,65,63,64,58,54,87,80,71,30.10,29.93,0,0,0,0.04
2014-8-23,66,64,62,60,56,52,85,77,67,30.10,30.04,5,0,5,0.04
2014-8-24,80,71,64,64,58,49,89,67,38,30.04,29.87,9,1,9,1.89
2014-8-25,82,69,62,70,50,38,89,56,23,30.04,29.87,12,2,12,0.35
2014-8-26,68,59,53,40,36,33,54,43,29,30.22,30.01,9,1,9,0.04
2014-8-27,70,60,51,47,38,32,73,47,25,30.25,30.16,6,0,6,0.04
2014-8-28,74,61,51,47,39,35,64,46,28,30.19,29.98,6,0,6,0.04
2014-8-29,67,63,58,63,56,45,88,78,57,30.01,29.78,6,0,6,0.83
2014-8-30,63,60,54,59,53,48,89,79,64,29.96,29.81,5,0,5,0.79
2014-8-31,76,64,53,60,51,44,86,65,37,29.98,29.66,7,1,7,0.79
2014-9-1,71,65,61,61,48,35,87,59,33,29.81,29.60,8,1,9,0.98
2014-9-2,77,64,54,46,40,34,72,43,22,29.90,29.78,10,2,10,0.98
2014-9-3,75,64,54,54,45,39,80,53,31,29.93,29.78,9,3,12,0.20
2014-9-4,76,64,55,65,55,49,89,74,40,29.96,29.72,8,1,9,0.16
2014-9-5,66,60,54,57,38,32,73,44,33,30.13,29.81,8,2,9,0.00
2014-9-6,71,60,53,40,34,30,54,39,23,30.19,30.10,7,2,7,0.00
2014-9-7,76,65,56,40,35,32,47,34,23,30.13,30.04,8,4,8,0.00
2014-9-8,72,62,56,43,39,34,56,42,31,30.04,29.90,12,3,12,0.98
2014-9-9,74,63,53,50,46,42,76,54,40,29.96,29.87,9,2,11,0.16
2014-9-10,53,45,42,46,38,26,85,77,50,30.13,29.87,10,5,11,1.61
2014-9-11,53,44,38,31,27,23,68,52,36,30.40,27.77,7,1,7,0.98
2014-9-12,50,44,37,35,27,21,76,54,32,30.43,30.31,5,0,5,0.00
2014-9-13,55,47,41,31,25,20,55,43,27,30.34,30.16,6,1,6,0.98
2014-9-14,62,51,45,37,30,25,64,45,28,30.19,30.04,10,2,11,0.98
2014-9-15,58,49,42,41,29,22,74,49,27,30.19,30.13,8,1,9,0.98
2014-9-16,70,56,45,32,27,22,42,33,23,30.19,30.01,10,3,10,0.98
2014-9-17,64,52,43,36,30,24,58,45,32,30.16,29.96,7,2,7,0.00
2014-9-18,50,45,41,39,30,24,74,55,47,30.19,30.04,4,0,5,0.00